Vorticity
10 7 6 7 6 6 7 7 8 10 8 5 7 6 5 2 1 2 6 6 5 5
6 12 15 14 14 14 14 13 13 13 13 12 -0 -1 -2 3 10 14 13 9 5 3
5 3 3 4 6 9 8 7 8 8 10 15 18 19 19 14 11 8 8 9 10 10
7 6 7 9 7 6 7 7 8 8 7 4 2 5 7 7 8 9 10 10 10 11
7 8 8 9 10 8 7 7 7 5 2 1 3 8 7 6 8 9 9 10 11 11
6 8 8 7 8 8 9 6 3 1 -1 9 8 5 7 8 8 9 11 11 12 12
6 6 6 7 9 9 6 4 7 9 8 8 9 8 8 9 11 12 12 12 12 12
6 6 8 9 10 10 9 7 9 10 8 11 10 10 12 13 13 13 13 13 13 13
6 4 6 9 10 9 10 10 10 10 10 8 9 12 12 13 12 13 13 12 11 12
5 7 10 7 7 8 10 9 10 9 9 13 14 13 12 11 11 11 12 12 11 11
10 8 7 7 8 7 10 9 9 13 13 13 12 10 10 10 10 11 11 11 10 10
7 7 7 7 9 9 10 12 12 12 12 11 11 11 12 11 11 11 11 10 11 11
5 3 7 8 10 11 11 11 11 11 11 11 12 12 11 10 11 11 11 11 11 11
8 10 11 11 11 11 11 11 11 11 12 12 11 11 10 10 10 10 11 11 11 11
Height
3003 3005 3007 3009 3012 3013 3013 3015 3016 3017 3019 3022 3024 3025 3026 3027 3028 3030 3031 3032 3032 3033
2998 3000 3002 3004 3006 3008 3009 3010 3011 3012 3014 3015 3017 3019 3020 3021 3021 3022 3023 3023 3024 3024
2991 2994 2997 2998 3000 3001 3004 3005 3006 3008 3009 3010 3012 3013 3014 3015 3014 3014 3014 3014 3014 3015
2985 2988 2990 2992 2995 2996 2998 3001 3002 3003 3004 3005 3006 3006 3007 3007 3006 3006 3006 3005 3005 3005
2981 2984 2986 2989 2990 2992 2994 2996 2997 2998 2998 2999 2999 2999 2999 2998 2998 2998 2998 2997 2996 2996
2976 2978 2980 2982 2984 2986 2988 2990 2991 2991 2992 2992 2992 2992 2992 2991 2990 2990 2990 2989 2988 2988
2971 2973 2975 2977 2979 2980 2982 2983 2984 2985 2985 2984 2984 2984 2984 2983 2983 2982 2981 2980 2979 2978
2966 2969 2971 2972 2973 2974 2976 2976 2976 2976 2976 2976 2977 2977 2976 2976 2975 2973 2972 2971 2970 2970
2961 2963 2964 2965 2966 2967 2968 2969 2969 2969 2968 2968 2968 2968 2966 2966 2965 2963 2963 2963 2961 2960
2956 2958 2959 2959 2960 2961 2961 2962 2962 2962 2961 2960 2960 2958 2957 2956 2954 2954 2954 2953 2952 2952
2951 2952 2953 2954 2954 2954 2954 2953 2952 2952 2951 2951 2951 2950 2949 2947 2945 2945 2945 2944 2943 2943
2946 2946 2947 2946 2946 2945 2945 2944 2944 2943 2943 2943 2943 2941 2941 2939 2937 2937 2937 2936 2936 2935
2939 2939 2939 2938 2938 2937 2936 2936 2935 2935 2934 2934 2934 2933 2932 2931 2930 2930 2929 2929 2928 2928
2933 2932 2931 2930 2930 2929 2928 2927 2927 2926 2926 2925 2925 2925 2924 2923 2922 2922 2922 2921 2921 2920